User: anonymous   Login
Location: Caltech
(34.1382°N, 118.1253°W)
Time: 11:45:16
(UTC-08:00)
Language:

Oscar 16 - Orbit

View from above orbital plane
View from above orbital plane
View from above satellite
View from above satellite

Ground track
Ground track

The orbit data is extracted from the following two-line orbital elements,

1 20439U 90005D   16338.35449495  .00000042  00000-0  31768-4 0  9991
2 20439  98.5902 273.1695 0011352  25.7538  88.4944 14.32658836403367
Epoch (UTC): 03 December 2016 08:30:28
Eccentricity: 0.0011352
inclination: 98.5902°
perigee height: 775 km
apogee height: 791 km
right ascension of ascending node: 273.1695°
argument of perigee: 25.7538°
revolutions per day: 14.32658836
mean anomaly at epoch: 88.4944°
orbit number at epoch: 40336

The dashed part of the orbit path shows where the satellite is in the earth's shadow,  

DLR